| time (UTC) | temp F | wind direction | speed MPH | gust MPH | rain 1hr in | rain 24hr in | rain mn in | humidity % | barometer mb |
| 20260505000007 | 69 | 190 | 0.0 | 0.0 | 0.00 | 0.00 | 0.00 | 52 | 1014.3 |
| 20260504235503 | 70 | 190 | 0.0 | 1.0 | 0.00 | 0.00 | 0.00 | 52 | 1014.2 |
| 20260504235004 | 70 | 190 | 0.0 | 1.0 | 0.00 | 0.00 | 0.00 | 52 | 1014.2 |
| 20260504234506 | 71 | 190 | 0.0 | 0.0 | 0.00 | 0.00 | 0.00 | 51 | 1014.1 |
| 20260504234003 | 71 | 190 | 0.0 | 0.0 | 0.00 | 0.00 | 0.00 | 51 | 1014.1 |
| 20260504233502 | 71 | 190 | 0.0 | 0.0 | 0.00 | 0.00 | 0.00 | 49 | 1014.0 |
| 20260504233004 | 72 | 190 | 0.0 | 1.0 | 0.00 | 0.00 | 0.00 | 49 | 1013.9 |
| 20260504232502 | 72 | 190 | 0.0 | 1.0 | 0.00 | 0.00 | 0.00 | 49 | 1013.9 |
| 20260504232002 | 72 | 190 | 0.0 | 1.0 | 0.00 | 0.00 | 0.00 | 48 | 1014.0 |
| 20260504231503 | 72 | 190 | 0.0 | 2.0 | 0.00 | 0.00 | 0.00 | 46 | 1014.0 |
| 20260504231003 | 73 | 190 | 0.0 | 3.0 | 0.00 | 0.00 | 0.00 | 47 | 1014.0 |
| 20260504230504 | 73 | 175 | 0.0 | 3.0 | 0.00 | 0.00 | 0.00 | 46 | 1014.0 |
| 20260504230005 | 73 | 269 | 0.0 | 0.0 | 0.00 | 0.00 | 0.00 | 44 | 1013.9 |
| 20260504225504 | 73 | 269 | 0.0 | 2.0 | 0.00 | 0.00 | 0.00 | 44 | 1014.0 |
| 20260504224502 | 74 | 294 | 0.0 | 2.0 | 0.00 | 0.00 | 0.00 | 43 | 1014.0 |
| 20260504224004 | 74 | 248 | 1.0 | 3.0 | 0.00 | 0.00 | 0.00 | 41 | 1013.9 |
| 20260504223502 | 74 | 266 | 1.0 | 3.0 | 0.00 | 0.00 | 0.00 | 40 | 1013.9 |
| 20260504223002 | 74 | 286 | 1.0 | 3.0 | 0.00 | 0.00 | 0.00 | 41 | 1014.0 |
| 20260504222504 | 74 | 284 | 2.0 | 6.0 | 0.00 | 0.00 | 0.00 | 39 | 1014.0 |
| 20260504222004 | 74 | 279 | 2.0 | 6.0 | 0.00 | 0.00 | 0.00 | 38 | 1014.0 |
| 20260504221502 | 74 | 257 | 2.0 | 5.0 | 0.00 | 0.00 | 0.00 | 39 | 1014.1 |
| 20260504221002 | 74 | 268 | 1.0 | 5.0 | 0.00 | 0.00 | 0.00 | 38 | 1014.1 |
| 20260504215501 | 75 | 355 | 3.0 | 8.0 | 0.00 | 0.00 | 0.00 | 36 | 1014.0 |
| 20260504215001 | 75 | 311 | 2.0 | 7.0 | 0.00 | 0.00 | 0.00 | 35 | 1014.1 |
| 20260504214000 | 76 | 143 | 2.0 | 4.0 | 0.00 | 0.00 | 0.00 | 37 | 1014.1 |
| 20260504213500 | 76 | 217 | 2.0 | 5.0 | 0.00 | 0.00 | 0.00 | 36 | 1014.1 |
| 20260504213001 | 76 | 227 | 3.0 | 7.0 | 0.00 | 0.00 | 0.00 | 36 | 1014.1 |
| 20260504212502 | 76 | 263 | 2.0 | 7.0 | 0.00 | 0.00 | 0.00 | 35 | 1014.1 |
| 20260504211502 | 76 | 277 | 3.0 | 10.0 | 0.00 | 0.00 | 0.00 | 35 | 1014.1 |
| 20260504211000 | 76 | 292 | 3.0 | 8.0 | 0.00 | 0.00 | 0.00 | 35 | 1014.0 |
| 20260504210501 | 77 | 253 | 2.0 | 8.0 | 0.00 | 0.00 | 0.00 | 36 | 1014.0 |
| 20260504210004 | 77 | 275 | 2.0 | 4.0 | 0.00 | 0.00 | 0.00 | 36 | 1013.9 |
| 20260504205503 | 77 | 115 | 2.0 | 4.0 | 0.00 | 0.00 | 0.00 | 36 | 1013.9 |
| 20260504205001 | 77 | 302 | 2.0 | 7.0 | 0.00 | 0.00 | 0.00 | 35 | 1014.1 |
| 20260504204001 | 78 | 296 | 1.0 | 8.0 | 0.00 | 0.00 | 0.00 | 34 | 1014.2 |
| 20260504203501 | 78 | 212 | 2.0 | 8.0 | 0.00 | 0.00 | 0.00 | 34 | 1014.2 |
| 20260504203001 | 79 | 242 | 1.0 | 6.0 | 0.00 | 0.00 | 0.00 | 35 | 1014.2 |
| 20260504202503 | 80 | 11 | 1.0 | 6.0 | 0.00 | 0.00 | 0.00 | 34 | 1014.0 |
| 20260504202001 | 80 | 174 | 2.0 | 7.0 | 0.00 | 0.00 | 0.00 | 33 | 1014.1 |
| 20260504201001 | 80 | 187 | 2.0 | 4.0 | 0.00 | 0.00 | 0.00 | 32 | 1014.2 |
| 20260504200501 | 81 | 189 | 2.0 | 4.0 | 0.00 | 0.00 | 0.00 | 35 | 1014.1 |
| 20260504200004 | 80 | 144 | 2.0 | 7.0 | 0.00 | 0.00 | 0.00 | 32 | 1014.2 |
| 20260504195503 | 80 | 161 | 1.0 | 7.0 | 0.00 | 0.00 | 0.00 | 35 | 1014.4 |
| 20260504195001 | 80 | 209 | 1.0 | 3.0 | 0.00 | 0.00 | 0.00 | 31 | 1014.3 |
| 20260504194503 | 81 | 49 | 2.0 | 5.0 | 0.00 | 0.00 | 0.00 | 32 | 1014.5 |
| 20260504194001 | 80 | 206 | 2.0 | 5.0 | 0.00 | 0.00 | 0.00 | 32 | 1014.5 |
| 20260504193500 | 80 | 102 | 3.0 | 7.0 | 0.00 | 0.00 | 0.00 | 34 | 1014.5 |
| 20260504193002 | 80 | 245 | 2.0 | 7.0 | 0.00 | 0.00 | 0.00 | 32 | 1014.6 |
| 20260504192502 | 79 | 205 | 2.0 | 7.0 | 0.00 | 0.00 | 0.00 | 37 | 1014.8 |
| 20260504192001 | 79 | 217 | 2.0 | 7.0 | 0.00 | 0.00 | 0.00 | 35 | 1014.9 |
| 20260504191501 | 79 | 44 | 2.0 | 5.0 | 0.00 | 0.00 | 0.00 | 33 | 1014.9 |
| 20260504191001 | 79 | 250 | 2.0 | 7.0 | 0.00 | 0.00 | 0.00 | 33 | 1015.1 |
| 20260504190003 | 79 | 206 | 2.0 | 8.0 | 0.00 | 0.00 | 0.00 | 36 | 1015.2 |
| 20260504185002 | 78 | 175 | 2.0 | 9.0 | 0.00 | 0.00 | 0.00 | 35 | 1015.4 |
| 20260504184502 | 78 | 5 | 2.0 | 9.0 | 0.00 | 0.00 | 0.00 | 35 | 1015.5 |
| 20260504184002 | 78 | 156 | 2.0 | 4.0 | 0.00 | 0.00 | 0.00 | 36 | 1015.5 |
| 20260504183002 | 77 | 316 | 2.0 | 5.0 | 0.00 | 0.00 | 0.00 | 36 | 1015.6 |
| 20260504182502 | 78 | 177 | 2.0 | 5.0 | 0.00 | 0.00 | 0.00 | 38 | 1015.6 |
| 20260504181502 | 78 | 208 | 2.0 | 5.0 | 0.00 | 0.00 | 0.00 | 40 | 1015.7 |
| 20260504181002 | 77 | 282 | 2.0 | 5.0 | 0.00 | 0.00 | 0.00 | 40 | 1015.8 |
| 20260504180501 | 76 | 9 | 2.0 | 5.0 | 0.00 | 0.00 | 0.00 | 34 | 1015.8 |
| 20260504180006 | 77 | 19 | 2.0 | 7.0 | 0.00 | 0.00 | 0.00 | 36 | 1015.8 |
| 20260504175502 | 76 | 205 | 3.0 | 7.0 | 0.00 | 0.00 | 0.00 | 35 | 1015.8 |
| 20260504175005 | 76 | 277 | 3.0 | 7.0 | 0.00 | 0.00 | 0.00 | 35 | 1015.9 |
| 20260504174504 | 76 | 281 | 2.0 | 4.0 | 0.00 | 0.00 | 0.00 | 38 | 1015.8 |
| 20260504174002 | 77 | 307 | 2.0 | 6.0 | 0.00 | 0.00 | 0.00 | 36 | 1015.9 |
| 20260504173001 | 78 | 297 | 1.0 | 4.0 | 0.00 | 0.00 | 0.00 | 35 | 1016.0 |
| 20260504172503 | 79 | 238 | 2.0 | 5.0 | 0.00 | 0.00 | 0.00 | 32 | 1016.0 |
| 20260504172002 | 79 | 228 | 1.0 | 4.0 | 0.00 | 0.00 | 0.00 | 33 | 1016.1 |
| 20260504171502 | 78 | 150 | 1.0 | 3.0 | 0.00 | 0.00 | 0.00 | 41 | 1016.1 |
| 20260504171002 | 77 | 296 | 1.0 | 4.0 | 0.00 | 0.00 | 0.00 | 35 | 1016.2 |
| 20260504150501 | 67 | 265 | 2.0 | 4.0 | 0.00 | 0.00 | 0.00 | 50 | 1017.6 |
| 20260504141001 | 59 | 113 | 1.0 | 2.0 | 0.00 | 0.00 | 0.00 | 69 | 1017.6 |
| 20260504140502 | 58 | 349 | 1.0 | 5.0 | 0.00 | 0.00 | 0.00 | 72 | 1017.6 |
| 20260504110501 | 40 | 188 | 0.0 | 0.0 | 0.00 | 0.00 | 0.00 | 91 | 1017.0 |
| 20260504100500 | 41 | 188 | 0.0 | 0.0 | 0.00 | 0.00 | 0.00 | 89 | 1016.8 |
| 20260504081501 | 43 | 188 | 0.0 | 0.0 | 0.00 | 0.00 | 0.00 | 85 | 1016.3 |
| 20260504081001 | 43 | 188 | 0.0 | 0.0 | 0.00 | 0.00 | 0.00 | 86 | 1016.4 |
| 20260504050500 | 49 | 188 | 0.0 | 0.0 | 0.00 | 0.00 | 0.00 | 77 | 1016.8 |
| 20260504050004 | 49 | 188 | 0.0 | 0.0 | 0.00 | 0.00 | 0.00 | 77 | 1016.8 |
| 20260504045000 | 49 | 188 | 0.0 | 0.0 | 0.00 | 0.00 | 0.00 | 74 | 1016.5 |
| 20260504044500 | 49 | 188 | 0.0 | 0.0 | 0.00 | 0.00 | 0.00 | 74 | 1016.6 |
| 20260504044002 | 50 | 188 | 0.0 | 0.0 | 0.00 | 0.00 | 0.00 | 73 | 1016.6 |
| 20260504043500 | 50 | 188 | 0.0 | 0.0 | 0.00 | 0.00 | 0.00 | 73 | 1016.7 |
| 20260504043000 | 50 | 188 | 0.0 | 0.0 | 0.00 | 0.00 | 0.00 | 74 | 1016.7 |
| 20260504042500 | 50 | 188 | 0.0 | 0.0 | 0.00 | 0.00 | 0.00 | 73 | 1016.8 |
| 20260504042000 | 50 | 188 | 0.0 | 0.0 | 0.00 | 0.00 | 0.00 | 73 | 1016.9 |
| 20260504041500 | 51 | 188 | 0.0 | 0.0 | 0.00 | 0.00 | 0.00 | 71 | 1016.9 |
| 20260504041002 | 51 | 188 | 0.0 | 0.0 | 0.00 | 0.00 | 0.00 | 71 | 1017.0 |
| 20260504040008 | 51 | 188 | 0.0 | 0.0 | 0.00 | 0.00 | 0.00 | 71 | 1017.0 |
| 20260504035503 | 52 | 188 | 0.0 | 0.0 | 0.00 | 0.00 | 0.00 | 70 | 1016.9 |
| 20260504035003 | 52 | 188 | 0.0 | 0.0 | 0.00 | 0.00 | 0.00 | 71 | 1017.0 |
| 20260504034503 | 52 | 188 | 0.0 | 0.0 | 0.00 | 0.00 | 0.00 | 71 | 1017.0 |
| 20260504033503 | 52 | 188 | 0.0 | 1.0 | 0.00 | 0.00 | 0.00 | 69 | 1016.8 |
| 20260504033003 | 52 | 188 | 0.0 | 1.0 | 0.00 | 0.00 | 0.00 | 69 | 1016.8 |
| 20260504032504 | 53 | 188 | 0.0 | 1.0 | 0.00 | 0.00 | 0.00 | 68 | 1016.7 |
| 20260504032005 | 53 | 184 | 0.0 | 0.0 | 0.00 | 0.00 | 0.00 | 68 | 1016.7 |
| 20260504031503 | 53 | 184 | 0.0 | 0.0 | 0.00 | 0.00 | 0.00 | 68 | 1016.8 |
| 20260504031003 | 53 | 184 | 0.0 | 2.0 | 0.00 | 0.00 | 0.00 | 68 | 1016.7 |
| 20260504030503 | 53 | 184 | 0.0 | 2.0 | 0.00 | 0.00 | 0.00 | 68 | 1016.6 |
| 20260504030007 | 53 | 179 | 0.0 | 1.0 | 0.00 | 0.00 | 0.00 | 68 | 1016.6 |
| 20260504025501 | 53 | 179 | 0.0 | 1.0 | 0.00 | 0.00 | 0.00 | 69 | 1016.7 |
| 20260504025001 | 53 | 179 | 0.0 | 1.0 | 0.00 | 0.00 | 0.00 | 69 | 1016.7 |
| 20260504024502 | 53 | 179 | 0.0 | 0.0 | 0.00 | 0.00 | 0.00 | 70 | 1016.8 |
| 20260504023501 | 53 | 179 | 0.0 | 1.0 | 0.00 | 0.00 | 0.00 | 69 | 1016.8 |
| 20260504023002 | 53 | 179 | 0.0 | 1.0 | 0.00 | 0.00 | 0.00 | 69 | 1016.6 |
| 20260504022504 | 53 | 179 | 0.0 | 2.0 | 0.00 | 0.00 | 0.00 | 69 | 1016.5 |
| 20260504021502 | 53 | 179 | 0.0 | 1.0 | 0.00 | 0.00 | 0.00 | 69 | 1016.5 |
| 20260504021002 | 53 | 179 | 0.0 | 1.0 | 0.00 | 0.00 | 0.00 | 69 | 1016.5 |
| 20260504020504 | 54 | 179 | 0.0 | 0.0 | 0.00 | 0.00 | 0.00 | 69 | 1016.5 |
| 20260504020007 | 54 | 179 | 0.0 | 0.0 | 0.00 | 0.00 | 0.00 | 68 | 1016.4 |
| 20260504015501 | 54 | 179 | 0.0 | 0.0 | 0.00 | 0.00 | 0.00 | 68 | 1016.3 |
| 20260504015003 | 54 | 179 | 0.0 | 0.0 | 0.00 | 0.00 | 0.00 | 68 | 1016.2 |
| 20260504014501 | 55 | 179 | 0.0 | 0.0 | 0.00 | 0.00 | 0.00 | 68 | 1016.2 |
| 20260504014003 | 55 | 179 | 0.0 | 0.0 | 0.00 | 0.00 | 0.00 | 67 | 1016.2 |
| 20260504013501 | 55 | 179 | 0.0 | 0.0 | 0.00 | 0.00 | 0.00 | 66 | 1016.1 |
| 20260504013001 | 56 | 179 | 0.0 | 0.0 | 0.00 | 0.00 | 0.00 | 65 | 1016.1 |
| 20260504012501 | 56 | 179 | 0.0 | 0.0 | 0.00 | 0.00 | 0.00 | 64 | 1016.1 |
| 20260504012003 | 56 | 179 | 0.0 | 0.0 | 0.00 | 0.00 | 0.00 | 64 | 1016.0 |
| 20260504011501 | 57 | 179 | 0.0 | 0.0 | 0.00 | 0.00 | 0.00 | 63 | 1016.1 |
| 20260504010501 | 58 | 179 | 0.0 | 0.0 | 0.00 | 0.00 | 0.00 | 62 | 1016.1 |
| 20260504010004 | 58 | 179 | 0.0 | 0.0 | 0.00 | 0.00 | 0.00 | 61 | 1016.0 |
| 20260504005503 | 58 | 179 | 0.0 | 0.0 | 0.00 | 0.00 | 0.00 | 61 | 1016.0 |
| 20260504005001 | 59 | 179 | 0.0 | 0.0 | 0.00 | 0.00 | 0.00 | 60 | 1015.9 |
| 20260504004501 | 59 | 179 | 0.0 | 0.0 | 0.00 | 0.00 | 0.00 | 59 | 1016.0 |
| 20260504004001 | 60 | 179 | 0.0 | 0.0 | 0.00 | 0.00 | 0.00 | 58 | 1015.8 |
| 20260504003503 | 60 | 179 | 0.0 | 0.0 | 0.00 | 0.00 | 0.00 | 57 | 1015.7 |
| 20260504003001 | 61 | 179 | 0.0 | 0.0 | 0.00 | 0.00 | 0.00 | 56 | 1015.7 |
| 20260504001001 | 62 | 179 | 0.0 | 0.0 | 0.00 | 0.00 | 0.00 | 52 | 1015.5 |